Weather in San Marcos

Guatemala     14°56′59″N   91°48′41″W
temp.,
°C
wind,
m/s
gust,
m/s
humid.,
%
clouds,
%
prec.,
mm/h
press.,
hPa
HPBL,
m
21 june, mon
mon2100:00+12ene1192100 3.1 101911
03:00+12ne0091100 0.3 101910
06:00+12ne1190100 0.3 101916
09:00+17sw1177100 0.1 1019525
12:00+18ssw2277100 3.3 1017811
15:00+17ssw228673 6.6 1016381
18:00+14nw0191100 12.4 101626
21:00+11sw119799 4.8 1020101
22 june, tue
tue2200:00+12w0195100 6.1 102023
03:00+10nne11935 0.1 101818
06:00+10ene119376 0.1 101918
09:00+17sw116655 0.0 1018649
12:00+20ssw236379 0.4 10151545
15:00+15s2391100 3.3 1016156
18:00+14sse118949 5.3 101648
21:00+11ne2293100 2.3 101922
23 june, wed
wed2300:00+11ne2192100 3.0 102013
03:00+10ne1190100 0.1 101814
06:00+10ne2290100 0.1 101923
09:00+16ssw1272100 0.0 1019764
12:00+18sse1372100 1.4 10171153
15:00+15ene1287100 3.4 1016445
18:00+14ene119076 5.6 101771
21:00+12ne2294100 1.3 102054
24 june, thu
thu2400:00+11ne2395100 1.6 102098
03:00+11ne2294100 0.1 101862
06:00+11ne2392100 0.1 101878
09:00+15ne1470100 0.0 1018744
12:00+15e1376100 0.6 1017841
15:00+14e1483100 1.2 1016383
18:00+13ene128793 2.4 101792
21:00+11ne2293100 1.0 101942
25 june, fri
fri2500:00+10ne229190 1.1 101925
03:00+10ene229258 0.0 101837
06:00+10ene229188 0.0 101848
09:00+16s126746 0.0 1016933
12:00+13sw2295100 2.6 1017387
15:00+13sw3399100 5.7 1015279
18:00+12w1298100 13.9 1017138
21:00+10ene0194100 0.4 101935